STARLINK-1342 (45558 NORAD) Tracking and Keplerian Element Data

This shows tracking and keplerian element data for the satellite.

Feedback or suggestion? Click here.




ElementValue
Catalog45558
NameSTARLINK-1342
Epoch Orbit566
Epoch Day145.33334491
Epoch Year2020
RAAN243.7996
Inclination52.998
Eccentricity0.0001188
Argument of Perigee101.0803
Mean Anonmoly84.9226
Mean Motion15.6278527
Decay Rate0.00018475
L11 45558U 20025AD 20145.33334491 .00018475 00000-0 20688-3 0 9990
L22 45558 52.9980 243.7996 0001188 101.0803 84.9226 15.62785270 5664

Live tracking and technical data element details for STARLINK-1342 (NORAD 45558). STARLINK-1342 can be tracked NOW for your location showing map with azimuth and elevation plus other details from your city location.

Track the satellite on the map from your city or location and see movement details for azimuth, elevation, latitude, longitude, range, height, and movement on the map or in text.







IsCatalogInMostPopularTable: catalog: 45558, numindb: 11
Update: records affected: 1



GetName: 45558 STARLINK-1342

Hit Count: updated at: Tue, 26 May 2020 03:38:59 GMT